TimeWET,TemperatureF,Dew PointF,Humidity,Sea Level PressureIn,VisibilityMPH,Wind Direction,Wind SpeedMPH,Gust SpeedMPH,PrecipitationIn,Events,Conditions,WindDirDegrees,DateUTC
12:00 AM,57,54,85,30.12,5,ENE,8.1,,,,,60,2011-10-29 00:00:00
12:00 AM,57.2,53.6,88,30.12,5.0,ENE,8.1,-,N/A,,Unknown,60,2011-10-29 00:00:00
12:30 AM,57.2,53.6,88,30.12,-9999.0,ENE,6.9,-,N/A,,Clear,70,2011-10-29 00:30:00
1:00 AM,55.4,53.6,94,30.12,-9999.0,East,4.6,-,N/A,,Clear,90,2011-10-29 01:00:00
1:30 AM,55.4,53.6,94,30.12,-9999.0,East,4.6,-,N/A,,Clear,100,2011-10-29 01:30:00
2:00 AM,53.6,51.8,94,30.09,5.0,East,3.5,-,N/A,,Unknown,100,2011-10-29 02:00:00
2:30 AM,53.6,51.8,94,30.09,6.2,East,3.5,-,N/A,,Unknown,80,2011-10-29 02:30:00
3:00 AM,53,52,94,30.10,6,East,4.6,,,,,80,2011-10-29 03:00:00
3:00 AM,53.6,51.8,94,30.09,6.2,East,4.6,-,N/A,,Unknown,90,2011-10-29 03:00:00
3:30 AM,53.6,51.8,94,30.09,-9999.0,East,5.8,-,N/A,,Clear,80,2011-10-29 03:30:00
4:00 AM,51.8,51.8,100,30.09,-9999.0,ENE,5.8,-,N/A,,Clear,70,2011-10-29 04:00:00
4:30 AM,53.6,51.8,94,30.09,-9999.0,ENE,4.6,-,N/A,,Clear,60,2011-10-29 04:30:00
5:00 AM,53.6,51.8,94,30.09,-9999.0,East,4.6,-,N/A,,Clear,90,2011-10-29 05:00:00
5:30 AM,53.6,51.8,94,30.09,6.2,East,5.8,-,N/A,,Unknown,90,2011-10-29 05:30:00
6:00 AM,52,51,94,30.11,5,East,4.6,,,,,80,2011-10-29 06:00:00
6:00 AM,51.8,50.0,94,30.09,5.0,East,4.6,-,N/A,,Unknown,80,2011-10-29 06:00:00
6:30 AM,51.8,50.0,94,30.09,4.3,East,3.5,-,N/A,,Unknown,90,2011-10-29 06:30:00
7:00 AM,51.8,51.8,100,30.09,5.0,East,4.6,-,N/A,,Unknown,100,2011-10-29 07:00:00
7:30 AM,55.4,53.6,94,30.12,-9999.0,ESE,4.6,-,N/A,,Clear,110,2011-10-29 07:30:00
8:00 AM,57.2,53.6,88,30.12,-9999.0,East,3.5,-,N/A,,Clear,100,2011-10-29 08:00:00
8:30 AM,59.0,55.4,88,30.12,-9999.0,East,6.9,-,N/A,,Clear,90,2011-10-29 08:30:00
9:00 AM,60.8,55.4,82,30.15,-9999.0,ENE,4.6,-,N/A,,Clear,60,2011-10-29 09:00:00
9:30 AM,62.6,55.4,77,30.15,-9999.0,NE,3.5,-,N/A,,Clear,40,2011-10-29 09:30:00
10:00 AM,66.2,55.4,68,30.15,-9999.0,East,3.5,-,N/A,,Clear,80,2011-10-29 10:00:00
10:30 AM,68.0,55.4,64,30.15,-9999.0,Variable,2.3,-,N/A,,Clear,0,2011-10-29 10:30:00
11:00 AM,69.8,55.4,60,30.15,-9999.0,Variable,3.5,-,N/A,,Clear,0,2011-10-29 11:00:00
11:30 AM,68.0,53.6,60,30.15,5.0,NNE,6.9,-,N/A,,Unknown,20,2011-10-29 11:30:00
11:49 AM,69,53,47,30.09,5,NE,6.9,,,,Partly Cloudy,40,2011-10-29 11:49:00
12:00 PM,69.8,53.6,56,30.12,5.0,NE,6.9,-,N/A,,Unknown,40,2011-10-29 12:00:00
12:30 PM,69.8,51.8,53,30.12,5.0,NE,6.9,-,N/A,,Unknown,50,2011-10-29 12:30:00
1:00 PM,71.6,50.0,46,30.09,5.0,ENE,6.9,-,N/A,,Unknown,70,2011-10-29 13:00:00
1:30 PM,71.6,50.0,46,30.09,-9999.0,NNE,9.2,-,N/A,,Clear,30,2011-10-29 13:30:00
2:00 PM,73.4,50.0,44,30.09,-9999.0,NE,6.9,-,N/A,,Clear,40,2011-10-29 14:00:00
2:30 PM,73.4,48.2,41,30.06,-9999.0,East,5.8,-,N/A,,Clear,90,2011-10-29 14:30:00
3:00 PM,74,47,28,30.02,6,NE,8.1,,,,,40,2011-10-29 15:00:00
3:00 PM,73.4,48.2,41,30.06,-9999.0,NNE,8.1,-,N/A,,Clear,30,2011-10-29 15:00:00
3:30 PM,73.4,48.2,41,30.06,-9999.0,ENE,8.1,-,N/A,,Clear,60,2011-10-29 15:30:00
4:00 PM,73.4,48.2,41,30.06,-9999.0,ENE,6.9,-,N/A,,Clear,70,2011-10-29 16:00:00
4:30 PM,73.4,46.4,38,30.06,-9999.0,ENE,8.1,-,N/A,,Clear,60,2011-10-29 16:30:00
5:00 PM,73.4,48.2,41,30.06,-9999.0,East,8.1,-,N/A,,Clear,80,2011-10-29 17:00:00
5:30 PM,71.6,48.2,43,30.09,-9999.0,ENE,6.9,-,N/A,,Clear,70,2011-10-29 17:30:00
6:00 PM,67,49,42,30.05,6,East,8.1,,,,,80,2011-10-29 18:00:00
6:00 PM,68.0,48.2,49,30.09,-9999.0,East,8.1,-,N/A,,Clear,80,2011-10-29 18:00:00
6:30 PM,66.2,50.0,56,30.09,-9999.0,ENE,6.9,-,N/A,,Clear,60,2011-10-29 18:30:00
7:00 PM,64.4,50.0,59,30.09,-9999.0,ENE,6.9,-,N/A,,Clear,60,2011-10-29 19:00:00
7:30 PM,62.6,50.0,63,30.09,-9999.0,ENE,4.6,-,N/A,,Clear,60,2011-10-29 19:30:00
8:00 PM,62.6,50.0,63,30.12,-9999.0,ENE,4.6,-,N/A,,Clear,70,2011-10-29 20:00:00
8:30 PM,62.6,51.8,68,30.09,-9999.0,East,5.8,-,N/A,,Clear,100,2011-10-29 20:30:00
9:00 PM,62,51,59,30.09,6,SE,3.5,,,,,130,2011-10-29 21:00:00
9:00 PM,62.6,51.8,68,30.09,-9999.0,SE,3.5,-,N/A,,Clear,130,2011-10-29 21:00:00
9:30 PM,62.6,51.8,68,30.09,-9999.0,SE,4.6,-,N/A,,Clear,130,2011-10-29 21:30:00
10:00 PM,59.0,51.8,77,30.09,-9999.0,East,3.5,-,N/A,,Clear,90,2011-10-29 22:00:00
10:30 PM,59.0,51.8,77,30.09,-9999.0,NNE,5.8,-,N/A,,Clear,30,2011-10-29 22:30:00
11:00 PM,57.2,51.8,82,30.09,-9999.0,ENE,4.6,-,N/A,,Clear,60,2011-10-29 23:00:00
11:30 PM,57.2,51.8,82,30.09,-9999.0,ENE,3.5,-,N/A,,Clear,60,2011-10-29 23:30:00